Location: Berg
(47.2344°N, 9.5296°E)
Time: 16:41:09
(UTC+00:00)

USA 229 - Pass Details

Date: 24 January 2021
Orbit: 964 x 1248 km, 63.4° (Epoch: 26 February)

Event Time Altitude Azimuth Distance (km) Brightness Sun altitude
Rises 18:32:11 0° 319° (NW) 3,955 7.2 -23.6°
Reaches altitude 10° 18:34:49 10° 318° (NW) 3,033 6.6 -24.0°
Maximum altitude 18:42:06 76° 234° (SW) 1,226 4.0 -25.3°
Enters shadow 18:47:29 22° 152° (SSE) 2,413 5.3 -26.2°
